• en Suisse
  • Liste des pays
  • À 7 jours
  • Température de l'eau
  • Carte satellitaire
  • Carte météo
  • Widgets météo
  • user-avatar
    Se connecter

    Météo par heure à Bodø

    Ce jour, 18 Octobre, Jeudi

    Heure Température Précipitation Vent Pression Humidité
    00:00 +5°C° 0.2 mm 10 m/s 752 mmHg 85%
    01:00 +5°C° 0.2 mm 10 m/s 752 mmHg 84%
    02:00 +5°C° 0.2 mm 10 m/s 752 mmHg 84%
    03:00 +5°C° 0.2 mm 10 m/s 751 mmHg 83%
    04:00 +5°C° 0.2 mm 10 m/s 751 mmHg 83%
    05:00 +5°C° 0.1 mm 10 m/s 751 mmHg 83%
    06:00 +5°C° 0.1 mm 10 m/s 751 mmHg 82%
    07:00 +5°C° 0.1 mm 10 m/s 750 mmHg 81%
    08:00 +5°C° 0.4 mm 10 m/s 750 mmHg 81%
    09:00 +5°C° 0.4 mm 10 m/s 750 mmHg 81%
    10:00 +5°C° 0.4 mm 10 m/s 749 mmHg 81%
    11:00 +6°C° 1.3 mm 10 m/s 749 mmHg 84%
    12:00 +6°C° 1.3 mm 10 m/s 749 mmHg 87%
    13:00 +6°C° 1.3 mm 10 m/s 749 mmHg 90%
    14:00 +6°C° 1.6 mm 11 m/s 749 mmHg 91%
    15:00 +5°C° 1.6 mm 12 m/s 749 mmHg 92%
    16:00 +5°C° 1.6 mm 13 m/s 749 mmHg 93%
    17:00 +5°C° 1.7 mm 13 m/s 750 mmHg 93%
    18:00 +5°C° 1.7 mm 13 m/s 750 mmHg 94%
    19:00 +5°C° 1.7 mm 13 m/s 751 mmHg 94%
    20:00 +5°C° 1.1 mm 13 m/s 751 mmHg 94%
    21:00 +7°C° 1.1 mm 12 m/s 752 mmHg 95%
    22:00 +7°C° 1.1 mm 12 m/s 753 mmHg 95%
    23:00 +7°C° 0.7 mm 11 m/s 754 mmHg 94%

    Demain, 19 Octobre, Vendredi

    Heure Température Précipitation Vent Pression Humidité
    00:00 +6°C° 0.7 mm 10 m/s 755 mmHg 93%
    01:00 +6°C° 0.7 mm 10 m/s 756 mmHg 92%
    02:00 +6°C° 0.5 mm 9 m/s 757 mmHg 92%
    03:00 +6°C° 0.5 mm 9 m/s 757 mmHg 93%
    04:00 +6°C° 0.5 mm 9 m/s 758 mmHg 93%
    05:00 +6°C° 0.3 mm 8 m/s 758 mmHg 92%
    06:00 +6°C° 0.3 mm 8 m/s 759 mmHg 91%
    07:00 +5°C° 0.3 mm 8 m/s 759 mmHg 90%
    08:00 +5°C° 0.1 mm 7 m/s 759 mmHg 89%
    09:00 +5°C° 0.1 mm 7 m/s 760 mmHg 87%
    10:00 +5°C° 0.1 mm 6 m/s 760 mmHg 85%
    11:00 +5°C° 0.1 mm 6 m/s 760 mmHg 84%
    12:00 +7°C° 0.1 mm 5 m/s 760 mmHg 82%
    13:00 +7°C° 0.1 mm 5 m/s 760 mmHg 80%
    14:00 +6°C° 0.5 mm 5 m/s 760 mmHg 82%
    15:00 +6°C° 0.5 mm 5 m/s 760 mmHg 84%
    16:00 +6°C° 0.5 mm 5 m/s 760 mmHg 86%
    17:00 +6°C° 0.7 mm 5 m/s 760 mmHg 87%
    18:00 +6°C° 0.7 mm 5 m/s 759 mmHg 87%
    19:00 +6°C° 0.7 mm 5 m/s 759 mmHg 87%
    20:00 +5°C° 0.5 mm 6 m/s 759 mmHg 86%
    21:00 +5°C° 0.5 mm 6 m/s 758 mmHg 86%
    22:00 +5°C° 0.5 mm 6 m/s 758 mmHg 85%
    23:00 +5°C° 0.3 mm 6 m/s 758 mmHg 85%

    Après-demain, 20 Octobre, Samedi

    Heure Température Précipitation Vent Pression Humidité
    00:00 +5°C° 0.3 mm 6 m/s 757 mmHg 84%
    01:00 +5°C° 0.3 mm 6 m/s 757 mmHg 84%
    02:00 +5°C° 0.6 mm 6 m/s 757 mmHg 84%
    03:00 +5°C° 0.6 mm 6 m/s 757 mmHg 85%
    04:00 +5°C° 0.6 mm 6 m/s 758 mmHg 86%
    05:00 +6°C° 0.5 mm 5 m/s 758 mmHg 87%
    06:00 +6°C° 0.5 mm 5 m/s 758 mmHg 88%
    07:00 +6°C° 0.5 mm 5 m/s 759 mmHg 89%
    08:00 +6°C° 0.2 mm 5 m/s 759 mmHg 88%
    09:00 +5°C° 0.2 mm 6 m/s 760 mmHg 87%
    10:00 +5°C° 0.2 mm 6 m/s 760 mmHg 86%
    11:00 +7°C° 0.2 mm 6 m/s 760 mmHg 85%
    12:00 +7°C° 0.2 mm 6 m/s 760 mmHg 83%
    13:00 +7°C° 0.2 mm 6 m/s 761 mmHg 81%
    14:00 +7°C° 0.1 mm 6 m/s 761 mmHg 82%
    15:00 +5°C° 0.1 mm 6 m/s 760 mmHg 83%
    16:00 +5°C° 0.1 mm 7 m/s 760 mmHg 83%
    17:00 +4°C° 0.1 mm 7 m/s 760 mmHg 83%
    18:00 +4°C° 0.1 mm 8 m/s 759 mmHg 82%
    19:00 +4°C° 0.1 mm 8 m/s 758 mmHg 82%
    20:00 +3°C° 0.5 mm 9 m/s 757 mmHg 81%
    21:00 +3°C° 0.5 mm 9 m/s 755 mmHg 81%
    22:00 +3°C° 0.5 mm 9 m/s 754 mmHg 80%
    23:00 +5°C° 0.6 mm 10 m/s 753 mmHg 80%

    21 Octobre, Dimanche

    Heure Température Précipitation Vent Pression Humidité
    00:00 +5°C° 0.6 mm 10 m/s 752 mmHg 80%
    01:00 +4°C° 0.6 mm 11 m/s 751 mmHg 81%
    02:00 +6°C° 0.8 mm 11 m/s 751 mmHg 83%
    03:00 +5°C° 0.8 mm 12 m/s 750 mmHg 85%
    04:00 +5°C° 0.8 mm 12 m/s 750 mmHg 87%
    05:00 +5°C° 0.5 mm 13 m/s 750 mmHg 86%
    06:00 +5°C° 0.5 mm 13 m/s 750 mmHg 84%
    07:00 +4°C° 0.5 mm 13 m/s 750 mmHg 83%
    08:00 +4°C° 0.6 mm 13 m/s 750 mmHg 83%
    09:00 +5°C° 0.6 mm 13 m/s 749 mmHg 83%
    10:00 +5°C° 0.6 mm 13 m/s 749 mmHg 82%
    11:00 +5°C° 0.5 mm 13 m/s 749 mmHg 82%
    12:00 +5°C° 0.5 mm 13 m/s 749 mmHg 82%
    13:00 +5°C° 0.5 mm 13 m/s 748 mmHg 82%
    14:00 +4°C° 0.2 mm 13 m/s 748 mmHg 82%
    15:00 +4°C° 0.2 mm 12 m/s 748 mmHg 81%
    16:00 +4°C° 0.2 mm 11 m/s 748 mmHg 81%
    17:00 +3°C° 0.3 mm 12 m/s 748 mmHg 81%
    18:00 +3°C° 0.3 mm 12 m/s 747 mmHg 81%
    19:00 +3°C° 0.3 mm 12 m/s 747 mmHg 81%
    20:00 +3°C° 0.3 mm 12 m/s 747 mmHg 78%
    21:00 +2°C° 0.3 mm 12 m/s 747 mmHg 76%
    22:00 +2°C° 0.3 mm 12 m/s 747 mmHg 74%
    23:00 +2°C° 0.3 mm 11 m/s 746 mmHg 76%

    22 Octobre, Lundi

    Heure Température Précipitation Vent Pression Humidité
    00:00 +2°C° 0.3 mm 11 m/s 746 mmHg 78%
    01:00 +2°C° 0.3 mm 10 m/s 745 mmHg 80%
    02:00 +1°C° 0.5 mm 10 m/s 745 mmHg 82%
    03:00 +1°C° 0.5 mm 10 m/s 744 mmHg 83%
    04:00 +1°C° 0.5 mm 10 m/s 744 mmHg 84%
    05:00 +1°C° 0.6 mm 10 m/s 743 mmHg 82%
    06:00 +1°C° 0.6 mm 11 m/s 743 mmHg 80%
    07:00 +1°C° 0.6 mm 11 m/s 743 mmHg 77%
    08:00 +1°C° 0.5 mm 11 m/s 743 mmHg 79%
    09:00 +1°C° 0.5 mm 10 m/s 742 mmHg 80%
    10:00 +1°C° 0.5 mm 10 m/s 742 mmHg 82%
    11:00 +1°C° 0.4 mm 10 m/s 742 mmHg 81%
    12:00 +1°C° 0.4 mm 11 m/s 742 mmHg 81%
    13:00 +1°C° 0.4 mm 11 m/s 741 mmHg 81%
    14:00 +1°C° 0.7 mm 11 m/s 741 mmHg 83%
    15:00 +1°C° 0.7 mm 11 m/s 741 mmHg 84%
    16:00 0°C° 0.7 mm 12 m/s 740 mmHg 86%
    17:00 +2°C° 1.3 mm 11 m/s 740 mmHg 86%
    18:00 +2°C° 1.3 mm 11 m/s 740 mmHg 86%
    19:00 +2°C° 1.3 mm 10 m/s 740 mmHg 87%
    20:00 +2°C° 0.6 mm 10 m/s 740 mmHg 86%
    21:00 +2°C° 0.6 mm 10 m/s 740 mmHg 86%
    22:00 +2°C° 0.6 mm 10 m/s 740 mmHg 85%
    23:00 +2°C° 0.8 mm 10 m/s 740 mmHg 86%

    23 Octobre, Mardi

    Heure Température Précipitation Vent Pression Humidité
    00:00 +2°C° 0.8 mm 11 m/s 740 mmHg 88%
    01:00 +2°C° 0.8 mm 11 m/s 740 mmHg 89%
    02:00 +3°C° 1.1 mm 11 m/s 740 mmHg 89%
    03:00 +3°C° 1.1 mm 12 m/s 740 mmHg 90%
    04:00 +3°C° 1.1 mm 12 m/s 739 mmHg 91%
    05:00 +3°C° 1.1 mm 12 m/s 740 mmHg 91%
    06:00 +3°C° 1.1 mm 13 m/s 740 mmHg 90%
    07:00 +3°C° 1.1 mm 14 m/s 741 mmHg 90%
    08:00 +3°C° 0.9 mm 14 m/s 742 mmHg 90%
    09:00 +3°C° 0.9 mm 13 m/s 743 mmHg 89%
    10:00 +3°C° 0.9 mm 13 m/s 744 mmHg 89%
    11:00 +3°C° 0.7 mm 12 m/s 745 mmHg 89%
    12:00 +3°C° 0.7 mm 12 m/s 747 mmHg 88%
    13:00 +3°C° 0.7 mm 12 m/s 748 mmHg 88%
    14:00 +3°C° 0.6 mm 11 m/s 749 mmHg 88%
    15:00 +3°C° 0.6 mm 10 m/s 749 mmHg 87%
    16:00 +3°C° 0.6 mm 9 m/s 750 mmHg 86%
    17:00 +4°C° 0.4 mm 8 m/s 750 mmHg 86%
    18:00 +3°C° 0.4 mm 7 m/s 750 mmHg 86%
    19:00 +3°C° 0.4 mm 7 m/s 751 mmHg 86%
    20:00 +3°C° 0.3 mm 6 m/s 751 mmHg 87%
    21:00 +3°C° 0.3 mm 6 m/s 751 mmHg 87%
    22:00 +3°C° 0.3 mm 5 m/s 751 mmHg 88%
    23:00 +3°C° 0.6 mm 5 m/s 751 mmHg 89%
    Voir plus